Hourly Data Report for August 15, 2006

TORONTO CITY
ONTARIO

43°40'00.000" N
79°24'00.000" W
112.50 m
6158355
71508
XTO

Download Data

Hourly Data (August 2006)
Hourly Data Report for August 15, 2006
TIME
LST
Temp Definition
°C
Dew Point Definition
°C
Rel Hum Definition
%
Precip. Amount Definition
mm

Wind Dir Definition
10's deg

Wind Spd Definition
km/h
Visibility Definition
km
Stn Press Definition
kPa
Hmdx Definition


Wind Chill Definition


Weather Definition


00:00 17.3 14.8 85   LegendMM LegendMM   99.42     LegendNANA
01:00 16.8 14.7 87   LegendMM LegendMM   99.41     LegendNANA
02:00 17.3 14.5 84   LegendMM LegendMM   99.48     LegendNANA
03:00 16.0 14.4 90   LegendMM LegendMM   99.50     LegendNANA
04:00 17.0 15.4 90   LegendMM LegendMM   99.51     LegendNANA
05:00 17.1 15.6 91   LegendMM LegendMM   99.56     LegendNANA
06:00 17.2 15.7 91   LegendMM LegendMM   99.59     LegendNANA
07:00 18.6 16.1 85   LegendMM LegendMM   99.63     LegendNANA
08:00 20.6 16.7 78   LegendMM LegendMM   99.66 26   LegendNANA
09:00 22.3 16.9 71   LegendMM LegendMM   99.68 28   LegendNANA
10:00 23.6 15.4 60   LegendMM LegendMM   99.70 28   LegendNANA
11:00 24.6 13.3 49   LegendMM LegendMM   99.74 28   LegendNANA
12:00 24.7 11.3 43   LegendMM LegendMM   99.76 27   LegendNANA
13:00 25.6 12.3 44   LegendMM LegendMM   99.79 28   LegendNANA
14:00 26.0 12.3 43   LegendMM LegendMM   99.83 28   LegendNANA
15:00 25.0 11.8 44   LegendMM LegendMM   99.86 27   LegendNANA
16:00 25.4 12.2 44   LegendMM LegendMM   99.89 28   LegendNANA
17:00 24.8 12.4 46   LegendMM LegendMM   99.97 27   LegendNANA
18:00 24.2 13.1 50   LegendMM LegendMM   100.02 27   LegendNANA
19:00 23.1 12.5 51   LegendMM LegendMM   100.11 26   LegendNANA
20:00 21.9 12.9 57   LegendMM LegendMM   100.19 25   LegendNANA
21:00 20.9 12.8 60   LegendMM LegendMM   100.25     LegendNANA
22:00 20.2 13.1 64   LegendMM LegendMM   100.31     LegendNANA
23:00 19.7 13.3 67   LegendMM LegendMM   100.36     LegendNANA

Notes on Data Quality.

Legend

  • E = Estimated
  • M = Missing
  • NA = Not Available*
  • [empty] = Indicates an unobserved value
Date modified: